Weather in Rakpas

Russia / Komi Republic     62°40′52″N   51°06′48″E
temp.,
°C
wind,
m/s
gust,
m/s
humid.,
%
clouds,
%
prec.,
mm/h
press.,
hPa
HPBL,
m
15 august, mon
mon1500:00+9s226981 0.0 102323
03:00+11ssw276472 0.0 1022185
06:00+11sw29648 0.0 1022261
09:00+13ssw2664100 0.0 1022207
12:00+20w47447 0.0 10211062
15:00+17nw256590 0.1 1021107
18:00+19nw274761 0.0 1021276
21:00+13nw22672 0.0 102319
16 august, tue
tue1600:00+10nnw22725 0.0 102422
03:00+9nnw117410 0.0 102613
06:00+12n1363100 0.0 1026142
09:00+17nnw234766 0.0 1026610
12:00+20nw2441100 0.0 10261438
15:00+21nw2441100 0.0 10251699
18:00+19wnw115979 0.0 102519
21:00+16e1163100 0.0 102524
17 august, wed
wed1700:00+15sse2368100 0.0 102569
03:00+14sse2576100 0.1 1024131
06:00+15ssw237962 0.1 1024153
09:00+21w226180 0.1 1023597
12:00+25nw2349100 0.0 10221523
15:00+25n2348100 0.0 1021882
18:00+19nnw3580100 1.3 1020141
21:00+16w2398100 7.4 102289
18 august, thu
thu1800:00+16sw119665 0.9 102124
03:00+14w11975 0.9 102211
06:00+16sw019424 0.0 102381
09:00+20ene11755 0.0 1023477
12:00+25n115382 0.0 10221093
15:00+25nne224966 0.0 10221353
18:00+22ene22685 0.0 102341
21:00+17sse238545 0.0 102460
19 august, fri
fri1900:00+16s249398 0.4 102498
03:00+15ssw24977 1.1 102580
06:00+17sw249349 0.3 1025141
09:00+21wsw23695 0.4 1026405
12:00+26w23505 0.0 1025802
15:00+28s024366 0.0 10251413
18:00+20se368250 0.4 1025130
21:00+18wsw249176 0.9 102664